Location: I?y Prandocin
(50.2786°N, 20.0982°E)
Time: 04:28:25
(UTC+00:00)

Daily predictions for brighter satellites

Satellite Brightness Start Highest point End
(mag) Time Altitude Azimuth Time Altitude Azimuth Time Altitude Azimuth
COSMOS 2455 4.4 02:23:49 30° ESE 02:23:49 30° ESE 02:26:46 10° SE
ATLAS 3B R/B 4.2 02:27:10 30° N 02:27:10 30° N 02:33:43 10° ENE
Cosmos 2360 Rocket 4.2 02:27:40 20° NNE 02:28:05 20° NE 02:32:12 10° E
Cosmos 2333 Rocket 3.9 02:28:57 27° NE 02:29:04 27° NE 02:33:54 10° E
ACS3 Solar Sail 4.2 02:28:30 10° N 02:28:40 11° N 02:28:40 11° N
Cosmos 2219 Rocket 4.3 02:44:06 17° NNE 02:45:28 18° NE 02:49:20 10° ENE
Cosmos 2322 Rocket 3.8 02:50:36 26° NNE 02:51:51 28° NE 02:56:43 10° ESE
USA 59 Rocket 2.3 03:08:36 18° SSE 03:08:36 18° SSE 03:10:00 10° SE
Cosmos 1937 Rocket 4.1 03:09:18 50° ESE 03:09:18 50° ESE 03:13:14 10° SE
Cosmos 1833 Rocket 4.5 03:13:28 20° N 03:13:28 20° N 03:15:24 10° NNE
Cosmos 2237 4.4 03:11:21 65° SE 03:11:21 65° SE 03:16:10 10° SSE
NOSS 3-1 (A) 4.2 03:09:52 47° NNW 03:11:47 60° NE 03:20:10 10° ESE
Aureole 1 Rocket 4.2 03:13:02 70° SW 03:13:02 70° SW 03:20:01 10° SSE
COSMOS 2406 4.1 03:13:03 16° S 03:17:17 47° ESE 03:22:43 10° NE
SL-16 R/B 2.6 03:19:10 52° NNE 03:20:12 61° NE 03:25:48 10° SE
Cosmos 2082 Rocket 2.1 03:23:08 82° NE 03:23:08 82° NE 03:28:33 10° NNE
SKYMED 2 4.3 03:19:19 10° SSE 03:23:01 50° E 03:23:01 50° E
USA 234 3.5 03:21:26 10° ENE 03:27:44 51° N 03:28:36 48° NNW
SeaSat 1 4.0 03:25:49 10° NNE 03:27:52 23° N 03:27:52 23° N
BREEZE-M DEB (TANK) 4.4 03:36:14 26° ESE 03:36:14 26° ESE 03:38:45 10° E
CZ-2C R/B 4.3 03:32:37 10° N 03:34:03 19° N 03:34:03 19° N
Helios 1A Rocket 3.8 03:39:55 10° SE 03:42:22 37° ESE 03:42:22 37° ESE
Cosmos 2278 3.7 03:42:22 43° NNW 03:44:18 77° ENE 03:49:56 10° SE
FengYun 1-2 T 4.1 03:42:23 10° NNE 03:48:04 85° WNW 03:53:44 10° SSW
Cosmos 2026 Rocket 4.3 03:43:38 10° S 03:49:36 64° E 03:55:39 10° NNE
Celestis-02/Orion 38 4.4 03:45:34 10° NNE 03:50:39 74° WNW 03:51:36 57° WSW
SL-4 R/B 2.6 03:54:50 42° E 03:54:50 42° E 03:57:04 10° E
NOSS 3-1 (C) 4.1 03:52:30 43° WNW 03:54:49 58° SW 04:03:24 10° SSE
Cosmos 1726 Rocket 4.0 04:01:10 44° SSW 04:01:10 44° SSW 04:04:13 10° S
Cosmos 841 Rocket 3.4 04:00:24 36° SW 04:02:31 68° WNW 04:07:47 10° NNE
SJ-11-01 4.2 04:00:17 10° N 04:04:55 61° WNW 04:07:06 30° SW
COSMOS 2455 3.7 04:07:00 31° WSW 04:07:00 31° WSW 04:11:37 10° S
Cosmos 2360 Rocket 2.3 04:09:26 23° NNW 04:13:02 76° ENE 04:18:39 10° SE
Cosmos 2333 Rocket 2.1 04:11:00 30° NW 04:14:01 77° WSW 04:19:45 10° SSE
Cosmos 489 Rocket 4.4 04:09:58 10° SW 04:16:13 63° WNW 04:22:27 10° NNE
Cosmos 1092 Rocket 4.0 04:10:03 10° S 04:16:21 87° E 04:22:36 10° N
Cosmos 1428 Rocket 4.5 04:12:21 10° SSW 04:18:29 59° WNW 04:24:43 10° N
Nadezhda 4 Rocket 4.1 04:13:07 10° SSW 04:19:12 50° WNW 04:25:18 10° N
ATLAS 3B R/B 3.8 04:14:24 19° NW 04:19:46 43° NNE 04:27:01 10° E
Meteor 2-2 Rocket 4.2 04:14:20 10° NNW 04:20:02 82° W 04:25:50 10° S
Cosmos 2237 Rocket 4.4 04:19:06 10° N 04:22:44 17° NNE 04:26:20 10° ENE
Cosmos 1892 Rocket 3.5 04:19:36 10° SSW 04:23:55 59° WNW 04:28:17 10° N
NOSS 3-4 (A) 4.5 04:23:03 23° NW 04:24:40 26° N 04:30:02 10° NE
NOSS 3-4 (C) 4.5 04:23:12 23° NW 04:24:49 26° N 04:30:11 10° NE
Cosmos-2242 2.8 04:24:04 23° NNW 04:26:41 71° W 04:30:51 10° S
Cosmos 220 Rocket 4.3 04:29:35 38° NW 04:29:35 38° NW 04:33:16 10° N
Cosmos 2219 Rocket 2.5 04:25:49 15° NNW 04:30:33 65° ENE 04:36:09 10° SE
COSMO-SKYMED 1 2.7 04:27:22 10° S 04:31:20 46° W 04:32:40 34° NW
IRS-1D 3.6 04:27:49 10° N 04:32:39 52° WNW 04:37:33 10° SW
Cosmos 2322 Rocket 2.2 04:32:25 20° NW 04:36:23 69° WSW 04:42:01 10° SSE
Meteor 2-6 Rocket 4.4 04:36:47 10° NNW 04:42:47 88° E 04:48:44 10° S
ATLAS 2AS CENTAUR R/B 4.1 04:40:59 10° S 04:47:29 41° ESE 04:53:50 10° NE
Orbus 7S? 2.4 04:48:21 39° WNW 04:49:10 74° SW 04:51:57 10° SE
Cosmos 1812 Rocket 4.0 04:45:35 10° N 04:49:52 62° ENE 04:54:10 10° SSE
IGS 5A 3.3 04:47:48 10° NNE 04:51:51 86° W 04:55:50 10° SSW
BREEZE M DEB (TANK) 4.0 04:50:46 10° SSW 04:52:57 27° SE 04:56:49 10° E
Cosmos 192 4.5 04:49:11 10° NNW 04:54:08 76° ENE 04:59:01 10° SSE
Cosmos 2333 4.2 04:49:16 14° NW 04:54:13 70° WSW 04:59:52 10° SSE
Cosmos 1484 Rocket 2.3 04:51:39 10° N 04:55:02 62° WNW 04:58:23 10° SSW
Meteor 2-3 Rocket 4.2 04:49:53 10° SW 04:55:11 38° WNW 05:00:29 10° N
BREEZE-M DEB (TANK) 2.6 04:55:04 27° SW 04:55:26 30° SSW 04:57:28 10° SE
SL-08 ROCKET BODY 4.4 04:49:36 10° S 04:55:27 86° E 05:01:20 10° N
Meteor 2-20 Rocket 4.5 04:51:15 10° NNW 04:56:46 48° W 05:02:12 10° SSW
Cosmos 2058 Rocket 3.7 04:54:41 16° NW 04:57:36 33° W 05:01:32 10° SSW
Cosmos 1602 Rocket 4.2 04:53:27 10° S 04:57:48 59° E 05:02:11 10° NNE
Cosmos 1437 Rocket 3.1 04:55:35 10° N 04:59:00 54° ENE 05:02:24 10° SSE
ARIANE 5 R/B 3.7 04:55:50 10° NNE 05:00:52 47° E 05:05:53 10° S
COSMOS 2406 3.7 04:56:28 10° WSW 05:01:42 37° NW 05:06:59 10° NNE
NOSS 3-1 (A) 4.4 04:57:15 17° NW 05:02:48 49° WSW 05:11:10 10° SSE
SL-16 R/B 3.2 05:01:03 18° WNW 05:03:54 27° WSW 05:08:32 10° SSW
SeaSat 1 4.2 05:04:37 10° N 05:06:48 13° NNW 05:07:30 13° NW
Cosmos 1743 2.2 05:04:12 10° S 05:07:26 89° E 05:10:43 10° N
COSMOS 2428 3.5 05:02:01 10° NNW 05:07:35 50° NE 05:13:06 10° SE
Cosmos 2082 Rocket 3.3 05:05:01 17° WNW 05:07:43 23° NW 05:12:09 10° NNE
USA 234 3.6 05:03:50 10° E 05:10:13 57° NNE 05:15:57 13° WNW
IRIDIUM 104 4.3 05:06:38 10° SSW 05:11:47 61° W 05:16:59 10° N
ATLAS 5 CENTAUR R/B 3.3 05:10:40 10° NNW 05:11:52 11° N 05:13:07 10° NNE
Okean 1 4.2 05:11:24 18° NW 05:12:52 23° W 05:15:42 10° SW
BREEZE-M DEB (TANK) 2.4 05:12:02 16° W 05:14:05 80° S 05:16:20 10° E
Helios 1A Rocket 4.2 05:14:06 10° SW 05:15:55 14° W 05:15:55 14° W
Cosmos 1814 Rocket 4.0 05:12:34 10° SW 05:17:46 62° WNW 05:23:03 10° NNE
MOS 1 Rocket 4.1 05:14:34 10° NNE 05:19:56 65° E 05:25:11 10° S
CBERS-1 4.0 05:15:27 10° N 05:20:30 62° WNW 05:25:31 10° SSW
IRIDIUM 114 4.5 05:15:54 10° SSW 05:20:58 51° W 05:26:04 10° N
Meteor 1-27 Rocket 4.3 05:15:49 10° N 05:21:41 64° ENE 05:27:23 10° SSE
Cosmos 2285 Rocket 4.4 05:17:52 10° NW 05:23:52 45° WSW 05:29:53 10° S
BREEZE-M DEB (TANK) 3.2 05:23:26 12° W 05:25:55 80° S 05:32:47 10° E
USA 229 4.2 05:20:14 10° NW 05:27:33 74° NE 05:35:38 10° SE
USA 229 DEB 4.2 05:20:20 10° NW 05:27:38 74° NE 05:35:43 10° SE
BREEZE-M DEB (TANK) 4.3 05:24:46 10° W 05:27:58 35° S 05:35:45 10° SE
SAR-Lupe-4 3.5 05:27:07 10° NNE 05:30:42 89° WNW 05:34:15 10° SSW
SL-4 R/B 2.5 05:28:33 11° W 05:31:15 32° SSW 05:34:07 10° SSE
Cosmos 1825 Rocket 4.1 05:27:05 10° S 05:31:27 66° E 05:35:50 10° NNE
Cosmos 2151 2.8 05:28:04 10° SSW 05:32:07 66° WNW 05:36:14 10° N
CORIOLIS 4.1 05:27:06 10° NNE 05:32:29 75° WNW 05:37:52 10° SSW
Cosmos 1758 Rocket 4.0 05:29:51 10° SW 05:34:02 41° WNW 05:38:13 10° N
CZ-2D R/B 2.7 05:31:11 10° N 05:34:21 67° WNW 05:37:30 10° SSW
Meteor 1-20 Rocket 4.3 05:29:40 10° S 05:35:19 88° E 05:40:55 10° NNE
Cosmos 2221 2.8 05:31:25 10° NNW 05:35:23 44° W 05:39:18 10° SSW
Thor Agena Rocket 3.5 05:33:40 10° N 05:38:40 62° WNW 05:43:37 10° SSW
Cosmos 2315 Rocket 4.1 05:32:49 10° N 05:39:14 85° W 05:45:32 10° S
SAR-Lupe-1 4.0 05:36:39 10° NNE 05:40:17 81° WNW 05:43:53 10° SSW
Cosmos 1238 Rocket 1.8 05:39:32 10° NNW 05:42:23 79° W 05:45:14 10° S
Cosmos 405 Rocket 3.5 05:41:18 10° WSW 05:43:54 22° WNW 05:46:32 10° NNW
SL-16 R/B 4.1 05:40:39 10° N 05:44:45 20° NE 05:48:48 10° E
Cosmos 1707 2.7 05:43:03 10° NNW 05:46:02 39° W 05:48:59 10° SSW
Meteor 2-4 Rocket 4.1 05:41:26 10° N 05:46:50 67° ENE 05:52:18 10° SSE
YAOGAN 1 3.7 05:45:42 10° NNE 05:49:51 47° E 05:53:57 10° S
Cosmos 158 Rocket 4.4 05:44:58 10° SW 05:50:00 42° WNW 05:54:58 10° NNE
Cosmos 1655 Rocket 4.3 05:45:27 10° S 05:51:47 79° E 05:58:07 10° NNE
